CW6265 Weather Reports


Display with metric or nautical units.
time (UTC)temp
F
wind
direction
speed
MPH
gust
MPH
rain 1hr
in
rain 24hr
in
rain mn
in
humidity
%
barometer
mb
20260508204322 66 220 2.0 5.0 0.00 0.00 0.00 34 1007.4
20260508203832 66 200 1.0 4.0 0.00 0.00 0.00 31 1007.5
20260508203331 66 175 0.0 4.0 0.00 0.00 0.00 31 1007.6
20260508202821 67 175 2.0 4.0 0.00 0.00 0.00 36 1007.6
20260508202329 67 176 1.0 4.0 0.00 0.00 0.00 37 1007.7
20260508201901 67 156 1.0 5.0 0.00 0.00 0.00 34 1007.7
20260508201342 67 177 2.0 6.0 0.00 0.00 0.00 35 1007.9
20260508200824 67 203 2.0 6.0 0.00 0.00 0.00 41 1007.9
20260508200342 67 158 2.0 4.0 0.00 0.00 0.00 41 1008.0
20260508195845 66 194 2.0 5.0 0.00 0.00 0.00 42 1008.1
20260508195356 67 109 2.0 5.0 0.00 0.00 0.00 41 1008.2
20260508194844 66 157 3.0 5.0 0.00 0.00 0.00 44 1008.3
20260508194338 66 270 2.0 7.0 0.00 0.00 0.00 41 1008.4
20260508193819 66 140 2.0 7.0 0.00 0.00 0.00 44 1008.4
20260508193352 66 145 2.0 5.0 0.00 0.00 0.00 38 1008.4
20260508192839 66 167 3.0 6.0 0.00 0.00 0.00 41 1008.4
20260508192350 66 167 3.0 6.0 0.00 0.00 0.00 44 1008.4
20260508191817 66 165 2.0 6.0 0.00 0.00 0.00 45 1008.5
20260508191326 66 161 2.0 5.0 0.00 0.00 0.00 42 1008.5
20260508190831 65 141 2.0 5.0 0.00 0.00 0.00 41 1008.5
20260508190323 65 120 2.0 5.0 0.00 0.00 0.00 43 1008.6
20260508185827 65 215 3.0 5.0 0.00 0.00 0.00 47 1008.7
20260508185331 65 178 1.0 5.0 0.00 0.00 0.00 47 1008.7
20260508184838 65 162 2.0 5.0 0.00 0.00 0.00 48 1008.7
20260508184330 65 165 2.0 5.0 0.00 0.00 0.00 44 1008.7
20260508183824 65 197 2.0 5.0 0.00 0.00 0.00 46 1008.8
20260508183335 65 153 2.0 6.0 0.00 0.00 0.00 45 1008.8
20260508182817 65 175 2.0 5.0 0.00 0.00 0.00 46 1008.9
20260508182331 65 239 1.0 4.0 0.00 0.00 0.00 48 1008.9
20260508181822 65 178 3.0 6.0 0.00 0.00 0.00 44 1009.0
20260508181356 65 240 2.0 5.0 0.00 0.00 0.00 46 1008.9
20260508180822 66 220 2.0 7.0 0.00 0.00 0.00 47 1009.0
20260508180331 66 220 3.0 7.0 0.00 0.00 0.00 49 1009.2
20260508175842 66 128 2.0 6.0 0.00 0.00 0.00 47 1009.2
20260508175331 66 145 3.0 5.0 0.00 0.00 0.00 44 1009.3
20260508174834 66 131 1.0 3.0 0.00 0.00 0.00 38 1009.2
20260508174405 66 167 1.0 5.0 0.00 0.00 0.00 40 1009.3
20260508173822 66 173 3.0 5.0 0.00 0.00 0.00 41 1009.4
20260508173327 67 208 2.0 4.0 0.00 0.00 0.00 42 1009.5
20260508172834 67 217 2.0 4.0 0.00 0.00 0.00 45 1009.5
20260508172343 67 156 2.0 4.0 0.00 0.00 0.00 41 1009.6
20260508171824 67 156 2.0 6.0 0.00 0.00 0.00 41 1009.7
20260508171334 67 167 2.0 6.0 0.00 0.00 0.00 39 1009.7
20260508170834 66 219 1.0 7.0 0.00 0.00 0.00 37 1009.7
20260508170319 66 156 3.0 7.0 0.00 0.00 0.00 38 1009.8
20260508165819 66 182 1.0 5.0 0.00 0.00 0.00 41 1009.8
20260508165321 65 263 2.0 4.0 0.00 0.00 0.00 38 1009.8
20260508164853 65 194 1.0 4.0 0.00 0.00 0.00 40 1009.9
20260508164320 65 203 2.0 4.0 0.00 0.00 0.00 44 1010.0
20260508163827 64 219 1.0 5.0 0.00 0.00 0.00 45 1010.0
20260508163329 64 228 3.0 6.0 0.00 0.00 0.00 44 1010.1
20260508162907 64 177 2.0 6.0 0.00 0.00 0.00 46 1010.3
20260508162354 64 180 2.0 5.0 0.00 0.00 0.00 46 1010.2
20260508161858 63 171 2.0 6.0 0.00 0.00 0.00 46 1010.2
20260508161319 63 176 2.0 6.0 0.00 0.00 0.00 48 1010.3
20260508160855 62 223 3.0 7.0 0.00 0.00 0.00 51 1010.3
20260508160337 62 164 2.0 7.0 0.00 0.00 0.00 47 1010.3
20260508155819 62 141 3.0 7.0 0.00 0.00 0.00 48 1010.3
20260508155324 61 170 2.0 4.0 0.00 0.00 0.00 49 1010.4
20260508154829 60 261 2.0 4.0 0.00 0.00 0.00 50 1010.4
20260508154335 60 161 2.0 4.0 0.00 0.00 0.00 51 1010.3
20260508153820 59 132 2.0 4.0 0.00 0.00 0.00 54 1010.2
20260508153359 59 165 1.0 4.0 0.00 0.00 0.00 53 1010.2
20260508152825 58 155 1.0 5.0 0.00 0.00 0.00 57 1010.1
20260508152334 57 195 2.0 5.0 0.00 0.00 0.00 58 1010.2
20260508151833 57 192 1.0 3.0 0.00 0.00 0.00 58 1010.1
20260508151359 56 161 2.0 5.0 0.00 0.00 0.00 64 1010.1
20260508150819 55 167 4.0 5.0 0.00 0.00 0.00 65 1010.2
20260508150324 55 136 1.0 4.0 0.00 0.00 0.00 65 1010.2
20260508145834 54 173 2.0 3.0 0.00 0.00 0.00 66 1010.3
20260508145319 53 200 1.0 3.0 0.00 0.00 0.00 65 1010.4
20260508144851 53 197 1.0 2.0 0.00 0.00 0.00 69 1010.4
20260508144318 52 203 0.0 3.0 0.00 0.00 0.00 75 1010.5
20260508143854 51 360 1.0 4.0 0.00 0.00 0.00 80 1010.4
20260508143316 51 261 1.0 4.0 0.00 0.00 0.00 82 1010.5
20260508142830 50 155 1.0 2.0 0.00 0.00 0.00 86 1010.5
20260508142339 50 156 0.0 5.0 0.00 0.00 0.00 88 1010.5
20260508141820 49 156 2.0 5.0 0.00 0.00 0.00 89 1010.5
20260508141322 49 154 1.0 3.0 0.00 0.00 0.00 91 1010.4
20260508140824 48 154 1.0 3.0 0.00 0.00 0.00 91 1010.6
20260508140357 48 155 1.0 3.0 0.00 0.00 0.00 91 1010.6
20260508135839 47 155 2.0 3.0 0.00 0.00 0.00 91 1010.7
20260508135345 47 140 0.0 4.0 0.00 0.00 0.00 92 1010.8
20260508134828 46 140 1.0 4.0 0.00 0.00 0.00 91 1010.9
20260508134340 45 222 2.0 4.0 0.00 0.00 0.00 91 1010.8
20260508133843 45 180 1.0 3.0 0.00 0.00 0.00 91 1010.8
20260508133328 44 180 1.0 3.0 0.00 0.00 0.00 91 1010.8
20260508132827 44 180 1.0 3.0 0.00 0.00 0.00 91 1010.8
20260508132338 43 180 0.0 2.0 0.00 0.00 0.00 91 1010.8
20260508131824 43 180 0.0 2.0 0.00 0.00 0.00 91 1010.8
20260508131333 42 180 1.0 2.0 0.00 0.00 0.00 91 1010.9
20260508130821 42 180 1.0 2.0 0.00 0.00 0.00 91 1010.9
20260508130352 42 180 0.0 2.0 0.00 0.00 0.00 91 1010.9
20260508125830 41 180 0.0 2.0 0.00 0.00 0.00 90 1010.9
20260508125336 41 180 1.0 2.0 0.00 0.00 0.00 90 1011.0
20260508124823 40 180 0.0 2.0 0.00 0.00 0.00 90 1011.0
20260508124338 40 180 0.0 1.0 0.00 0.00 0.00 90 1011.0
20260508123819 39 180 0.0 1.0 0.00 0.00 0.00 89 1011.1
20260508123351 39 180 0.0 1.0 0.00 0.00 0.00 89 1011.1
20260508122836 38 180 0.0 0.0 0.00 0.00 0.00 88 1011.0
20260508122326 38 180 0.0 0.0 0.00 0.00 0.00 88 1010.9
20260508121834 38 180 0.0 0.0 0.00 0.00 0.00 87 1010.9
20260508121337 37 180 0.0 0.0 0.00 0.00 0.00 87 1010.9
20260508120829 37 180 0.0 0.0 0.00 0.00 0.00 86 1010.8
20260508120319 37 180 0.0 0.0 0.00 0.00 0.00 86 1010.8
20260508115850 37 180 0.0 0.0 0.00 0.00 0.00 86 1010.7
20260508115332 37 180 0.0 0.0 0.00 0.00 0.00 85 1010.7
20260508114820 36 180 0.0 0.0 0.00 0.00 0.00 85 1010.7
20260508114320 36 180 0.0 0.0 0.00 0.00 0.00 85 1010.6
20260508113819 36 180 0.0 0.0 0.00 0.00 0.00 85 1010.5
20260508113335 36 180 0.0 1.0 0.00 0.00 0.00 84 1010.4
20260508112834 36 180 0.0 1.0 0.00 0.00 0.00 84 1010.4
20260508112318 36 180 0.0 0.0 0.00 0.00 0.00 84 1010.4
20260508111821 36 180 0.0 0.0 0.00 0.00 0.00 84 1010.4
20260508111327 36 180 0.0 0.0 0.00 0.00 0.00 84 1010.4
20260508110836 36 180 0.0 0.0 0.00 0.00 0.00 84 1010.4
20260508110326 37 180 0.0 0.0 0.00 0.00 0.00 84 1010.4
20260508105826 37 180 0.0 0.0 0.00 0.00 0.00 83 1010.4
20260508105345 37 180 0.0 0.0 0.00 0.00 0.00 83 1010.5
20260508104823 37 180 0.0 0.0 0.00 0.00 0.00 83 1010.4
20260508104355 37 180 0.0 0.0 0.00 0.00 0.00 83 1010.4
20260508103824 37 180 0.0 0.0 0.00 0.00 0.00 83 1010.4
20260508103327 37 180 0.0 0.0 0.00 0.00 0.00 83 1010.3
20260508102829 37 180 0.0 0.0 0.00 0.00 0.00 83 1010.4
20260508102333 37 180 0.0 0.0 0.00 0.00 0.00 83 1010.3
20260508101817 37 180 0.0 0.0 0.00 0.00 0.00 83 1010.2
20260508101328 37 180 0.0 0.0 0.00 0.00 0.00 82 1010.2
20260508100831 37 180 0.0 0.0 0.00 0.00 0.00 83 1010.1
20260508100337 37 180 0.0 0.0 0.00 0.00 0.00 82 1010.2
20260508095841 37 180 0.0 0.0 0.00 0.00 0.00 82 1010.2
20260508095343 37 180 0.0 0.0 0.00 0.00 0.00 82 1010.2
20260508094826 38 180 0.0 0.0 0.00 0.00 0.00 82 1010.2
20260508094335 38 180 0.0 0.0 0.00 0.00 0.00 82 1010.2
20260508093819 38 180 0.0 0.0 0.00 0.00 0.00 82 1010.2
20260508093325 38 180 0.0 0.0 0.00 0.00 0.00 82 1010.3
20260508092829 38 180 0.0 0.0 0.00 0.00 0.00 82 1010.3
20260508092342 38 180 0.0 0.0 0.00 0.00 0.00 82 1010.3
20260508091848 38 180 0.0 0.0 0.00 0.00 0.00 82 1010.4
20260508091402 38 180 0.0 0.0 0.00 0.00 0.00 82 1010.3
20260508090844 38 180 0.0 0.0 0.00 0.00 0.00 82 1010.4
20260508090355 38 180 0.0 0.0 0.00 0.00 0.00 82 1010.4
20260508085841 38 180 0.0 0.0 0.00 0.00 0.00 82 1010.4
20260508085349 38 180 0.0 0.0 0.00 0.00 0.00 82 1010.4
20260508084834 38 180 0.0 0.0 0.00 0.00 0.00 82 1010.5
20260508084340 39 180 0.0 0.0 0.00 0.00 0.00 82 1010.4
20260508083820 39 180 0.0 0.0 0.00 0.00 0.00 82 1010.4
20260508083324 39 180 0.0 0.0 0.00 0.00 0.00 82 1010.5
20260508082857 39 180 0.0 0.0 0.00 0.00 0.00 82 1010.5
20260508082320 39 180 0.0 0.0 0.00 0.00 0.00 82 1010.4
20260508081816 39 180 0.0 1.0 0.00 0.00 0.00 82 1010.5
20260508081320 39 180 0.0 1.0 0.00 0.00 0.00 82 1010.6
20260508080823 39 180 0.0 0.0 0.00 0.00 0.00 81 1010.6
20260508080337 39 180 0.0 0.0 0.00 0.00 0.00 81 1010.6
20260508075820 39 180 0.0 0.0 0.00 0.00 0.00 81 1010.6
20260508075327 39 180 0.0 0.0 0.00 0.00 0.00 81 1010.5
20260508074828 40 180 0.0 0.0 0.00 0.00 0.00 81 1010.5
20260508074335 40 180 0.0 0.0 0.00 0.00 0.00 81 1010.6
20260508073835 40 180 0.0 0.0 0.00 0.00 0.00 81 1010.6
20260508073352 40 180 0.0 0.0 0.00 0.00 0.00 81 1010.6
20260508072834 40 180 0.0 0.0 0.00 0.00 0.00 81 1010.8
20260508072318 40 180 0.0 0.0 0.00 0.00 0.00 80 1010.8
20260508071824 40 180 0.0 0.0 0.00 0.00 0.00 80 1010.9
20260508071326 40 180 0.0 0.0 0.00 0.00 0.00 80 1010.9
20260508070830 40 180 0.0 0.0 0.00 0.00 0.00 80 1010.9
20260508070332 40 180 0.0 0.0 0.00 0.00 0.00 80 1011.0
20260508065815 41 180 0.0 0.0 0.00 0.00 0.00 79 1011.0
20260508065322 41 180 0.0 0.0 0.00 0.00 0.00 79 1011.1
20260508064823 41 180 0.0 0.0 0.00 0.00 0.00 79 1011.1
20260508064332 41 180 0.0 0.0 0.00 0.00 0.00 79 1011.2
20260508063831 41 180 0.0 0.0 0.00 0.00 0.00 79 1011.1
20260508063338 41 180 0.0 0.0 0.00 0.00 0.00 79 1011.1
20260508062817 41 180 0.0 0.0 0.00 0.00 0.00 78 1011.2
20260508062323 41 180 0.0 0.0 0.00 0.00 0.00 78 1011.2
20260508061855 41 180 0.0 0.0 0.00 0.00 0.00 78 1011.2
20260508061338 41 180 0.0 0.0 0.00 0.00 0.00 78 1011.3
20260508060841 41 180 0.0 0.0 0.00 0.00 0.00 77 1011.2
20260508060330 41 180 0.0 0.0 0.00 0.00 0.00 77 1011.3
20260508055834 42 180 0.0 0.0 0.00 0.00 0.00 77 1011.3
20260508055321 42 180 0.0 0.0 0.00 0.00 0.00 77 1011.2
20260508054822 42 180 0.0 0.0 0.00 0.00 0.00 76 1011.4
20260508054331 42 180 0.0 0.0 0.00 0.00 0.00 76 1011.5
20260508053835 42 180 0.0 0.0 0.00 0.00 0.00 76 1011.3
20260508053319 42 180 0.0 0.0 0.00 0.00 0.00 75 1011.3
20260508052850 42 180 0.0 0.0 0.00 0.00 0.00 75 1011.2
20260508052331 42 180 0.0 0.0 0.00 0.00 0.00 75 1011.3
20260508051837 43 180 0.0 0.0 0.00 0.00 0.00 74 1011.2
20260508051344 43 180 0.0 0.0 0.00 0.00 0.00 74 1011.2
20260508050822 43 180 0.0 0.0 0.00 0.00 0.00 74 1011.0
20260508050334 43 180 0.0 0.0 0.00 0.00 0.00 74 1011.1
20260508045832 43 180 0.0 0.0 0.00 0.00 0.00 73 1011.1
20260508045340 43 180 0.0 0.0 0.00 0.00 0.00 73 1011.1
20260508044822 43 180 0.0 0.0 0.00 0.00 0.00 73 1011.1
20260508044320 44 180 0.0 0.0 0.00 0.00 0.00 73 1011.0
20260508043820 44 180 0.0 0.0 0.00 0.00 0.00 73 1011.0
20260508043331 44 180 0.0 0.0 0.00 0.00 0.00 73 1011.0
20260508042838 44 180 0.0 0.0 0.00 0.00 0.00 73 1011.0
20260508042340 44 180 0.0 0.0 0.00 0.00 0.00 73 1011.0
20260508041842 44 180 0.0 0.0 0.00 0.00 0.00 73 1011.0
20260508041330 44 180 0.0 0.0 0.00 0.00 0.00 73 1010.9
20260508040903 44 180 0.0 0.0 0.00 0.00 0.00 73 1010.9
20260508040325 45 180 0.0 0.0 0.00 0.00 0.00 73 1010.8
20260508035828 45 180 0.0 0.0 0.00 0.00 0.00 73 1010.8
20260508035336 45 180 0.0 0.0 0.00 0.00 0.00 73 1010.8
20260508034832 45 180 0.0 0.0 0.00 0.00 0.00 73 1010.7
20260508034335 45 180 0.0 0.0 0.00 0.00 0.00 73 1010.7
20260508033844 45 180 0.0 0.0 0.00 0.00 0.00 73 1010.7
20260508033328 45 180 0.0 0.0 0.00 0.00 0.00 73 1010.7
20260508032832 45 180 0.0 0.0 0.00 0.00 0.00 73 1010.7
20260508032318 45 180 0.0 0.0 0.00 0.00 0.00 72 1010.7
20260508031831 45 180 0.0 0.0 0.00 0.00 0.00 72 1010.8
20260508031321 45 180 0.0 0.0 0.00 0.00 0.00 72 1010.8
20260508030827 45 180 0.0 0.0 0.00 0.00 0.00 72 1010.8
20260508030330 46 180 0.0 0.0 0.00 0.00 0.00 71 1010.9
20260508025833 46 180 0.0 0.0 0.00 0.00 0.00 71 1010.9
20260508025347 46 180 0.0 0.0 0.00 0.00 0.00 70 1010.8
20260508024828 46 180 0.0 0.0 0.00 0.00 0.00 70 1010.8
20260508024316 46 180 0.0 1.0 0.00 0.00 0.00 70 1010.8
20260508023827 47 180 0.0 1.0 0.00 0.00 0.00 69 1010.8
20260508023336 47 180 0.0 1.0 0.00 0.00 0.00 69 1010.7
20260508022821 47 180 0.0 0.0 0.00 0.00 0.00 68 1010.7
20260508022326 47 180 0.0 0.0 0.00 0.00 0.00 68 1010.7
20260508021833 47 180 0.0 1.0 0.00 0.00 0.00 68 1010.6
20260508021343 48 180 0.0 1.0 0.00 0.00 0.00 68 1010.5
20260508020822 48 180 0.0 1.0 0.00 0.00 0.00 68 1010.5
20260508020330 48 180 0.0 0.0 0.00 0.00 0.00 67 1010.4
20260508015838 48 180 0.0 0.0 0.00 0.00 0.00 67 1010.3
20260508015338 49 180 0.0 1.0 0.00 0.00 0.00 67 1010.3
20260508014819 49 180 0.0 0.0 0.00 0.00 0.00 66 1010.2
20260508014325 49 180 0.0 0.0 0.00 0.00 0.00 66 1010.3
20260508013855 50 180 0.0 0.0 0.00 0.00 0.00 65 1010.2
20260508013342 50 180 0.0 0.0 0.00 0.00 0.00 66 1010.1
20260508012852 50 180 0.0 0.0 0.00 0.00 0.00 64 1010.1
20260508012342 50 180 0.0 0.0 0.00 0.00 0.00 63 1010.0
20260508011818 51 180 0.0 0.0 0.00 0.00 0.00 63 1009.9
20260508011320 51 180 0.0 0.0 0.00 0.00 0.00 64 1009.9
20260508010847 51 180 0.0 0.0 0.00 0.00 0.00 64 1009.8
20260508010340 51 180 0.0 0.0 0.00 0.00 0.00 64 1009.8
20260508005817 52 180 0.0 0.0 0.00 0.00 0.00 63 1009.8
20260508005324 52 180 0.0 0.0 0.00 0.00 0.00 63 1009.7
20260508004834 52 180 0.0 0.0 0.00 0.00 0.00 64 1009.7
20260508004337 52 180 0.0 0.0 0.00 0.00 0.00 62 1009.7
20260508003839 53 180 0.0 0.0 0.00 0.00 0.00 62 1009.7
20260508003347 53 180 0.0 0.0 0.00 0.00 0.00 62 1009.7
20260508002822 53 180 0.0 1.0 0.00 0.00 0.00 60 1009.7
20260508002328 53 180 0.0 3.0 0.00 0.00 0.00 59 1009.7
20260508001838 53 180 0.0 2.0 0.00 0.00 0.00 60 1009.8
20260508001321 54 180 0.0 2.0 0.00 0.00 0.00 58 1009.8
20260508000828 54 180 0.0 1.0 0.00 0.00 0.00 58 1009.8
20260508000405 54 180 0.0 2.0 0.00 0.00 0.00 59 1009.8
20260507235826 54 180 1.0 2.0 0.00 0.00 0.00 57 1009.8
20260507235335 55 180 0.0 2.0 0.00 0.00 0.00 57 1009.8
20260507234834 55 180 1.0 2.0 0.00 0.00 0.00 58 1009.7
20260507234339 55 180 0.0 2.0 0.00 0.00 0.00 58 1009.7
20260507233847 55 180 1.0 2.0 0.00 0.00 0.00 58 1009.7
20260507233337 55 180 1.0 3.0 0.00 0.00 0.00 57 1009.7
20260507232817 55 186 1.0 3.0 0.00 0.00 0.00 60 1009.8
20260507232325 56 164 1.0 2.0 0.00 0.00 0.00 57 1009.7
20260507231827 56 164 1.0 2.0 0.00 0.00 0.00 57 1009.8
20260507231332 56 164 0.0 2.0 0.00 0.00 0.00 55 1009.8
20260507230817 56 164 1.0 2.0 0.00 0.00 0.00 55 1009.8
20260507230319 56 163 0.0 3.0 0.00 0.00 0.00 52 1009.9
20260507225826 56 160 1.0 3.0 0.00 0.00 0.00 55 1009.9
20260507225333 56 190 1.0 2.0 0.00 0.00 0.00 52 1009.9
20260507224837 56 190 1.0 3.0 0.00 0.00 0.00 55 1010.1
20260507224343 56 178 1.0 3.0 0.00 0.00 0.00 52 1010.1
20260507223845 56 178 1.0 3.0 0.00 0.00 0.00 51 1010.2
20260507223326 57 178 2.0 3.0 0.00 0.00 0.00 52 1010.2
20260507222836 57 178 1.0 4.0 0.00 0.00 0.00 52 1010.4
20260507222326 57 181 2.0 4.0 0.00 0.00 0.00 52 1010.4
20260507221834 57 190 1.0 3.0 0.00 0.00 0.00 49 1010.6
20260507221320 57 167 1.0 3.0 0.00 0.00 0.00 48 1010.5
20260507220826 58 163 1.0 4.0 0.00 0.00 0.00 46 1010.5
20260507220342 58 130 2.0 4.0 0.00 0.00 0.00 46 1010.4
20260507215825 58 160 2.0 4.0 0.00 0.00 0.00 48 1010.4
20260507215337 58 171 0.0 4.0 0.00 0.00 0.00 47 1010.4
20260507214816 59 171 0.0 4.0 0.00 0.00 0.00 47 1010.3
20260507214327 59 169 0.0 4.0 0.00 0.00 0.00 48 1010.3
20260507213829 59 169 3.0 4.0 0.00 0.00 0.00 50 1010.3
20260507213333 58 159 1.0 4.0 0.00 0.00 0.00 48 1010.4
20260507212833 58 208 1.0 4.0 0.00 0.00 0.00 50 1010.4
20260507212324 58 201 2.0 4.0 0.00 0.00 0.00 50 1010.4
20260507211855 58 167 3.0 4.0 0.00 0.00 0.00 53 1010.4
20260507211318 58 162 1.0 5.0 0.00 0.00 0.00 53 1010.6
20260507210816 57 161 0.0 6.0 0.00 0.00 0.00 49 1010.6
20260507210353 57 169 2.0 6.0 0.00 0.00 0.00 51 1010.7
20260507205840 57 214 1.0 3.0 0.00 0.00 0.00 52 1010.8
20260507205352 57 157 1.0 5.0 0.00 0.00 0.00 49 1010.8
20260507204832 57 157 2.0 5.0 0.00 0.00 0.00 48 1010.9